YM2KV-13 Weather Reports


Display with metric or nautical units.
time (UTC)temp
F
wind
direction
speed
MPH
gust
MPH
rain 1hr
in
rain 24hr
in
rain mn
in
humidity
%
barometer
mb
20260508091953 81 0.0 0.0 0.00 0.00 0.00 39 1028.9
20260508090953 79 0.0 0.0 0.00 0.00 0.00 41 1028.9
20260508085953 78 0.0 0.0 0.00 0.00 0.00 40 1029.0
20260508084953 79 0.0 0.0 0.00 0.00 0.00 40 1029.0
20260508083953 80 0.0 0.0 0.00 0.00 0.00 41 1029.1
20260508082953 79 0.0 0.0 0.00 0.00 0.00 42 1029.2
20260508081953 77 0.0 0.0 0.00 0.00 0.00 43 1029.3
20260508080953 77 0.0 0.0 0.00 0.00 0.00 45 1029.3
20260508075952 75 0.0 0.0 0.00 0.00 0.00 46 1029.3
20260508074953 73 0.0 0.0 0.00 0.00 0.00 47 1029.4
20260508073952 73 0.0 0.0 0.00 0.00 0.00 48 1029.5
20260508072952 72 0.0 0.0 0.00 0.00 0.00 48 1029.6
20260508071953 70 0.0 0.0 0.00 0.00 0.00 50 1029.6
20260508070952 69 0.0 0.0 0.00 0.00 0.00 51 1029.7
20260508065952 68 0.0 0.0 0.00 0.00 0.00 57 1029.7
20260508064953 66 0.0 0.0 0.00 0.00 0.00 56 1029.7
20260508063952 65 0.0 0.0 0.00 0.00 0.00 60 1029.8
20260508062952 64 0.0 0.0 0.00 0.00 0.00 63 1029.9
20260508061952 62 0.0 0.0 0.00 0.00 0.00 64 1030.0
20260508060952 61 0.0 0.0 0.00 0.00 0.00 66 1030.0
20260508055952 61 0.0 0.0 0.00 0.00 0.00 67 1030.1
20260508054952 59 0.0 0.0 0.00 0.00 0.00 69 1030.1
20260508053952 58 0.0 0.0 0.00 0.00 0.00 73 1030.2
20260508052952 56 0.0 0.0 0.00 0.00 0.00 78 1030.3
20260508051952 54 0.0 0.0 0.00 0.00 0.00 79 1030.4
20260508050952 53 0.0 0.0 0.00 0.00 0.00 82 1030.3
20260508045952 52 0.0 0.0 0.00 0.00 0.00 83 1030.4
20260508044952 51 0.0 0.0 0.00 0.00 0.00 84 1030.4
20260508043952 50 0.0 0.0 0.00 0.00 0.00 86 1030.3
20260508042952 49 0.0 0.0 0.00 0.00 0.00 87 1030.4
20260508041952 48 0.0 0.0 0.00 0.00 0.00 88 1030.4
20260508040952 47 0.0 0.0 0.00 0.00 0.00 88 1030.3
20260508035952 47 0.0 0.0 0.00 0.00 0.00 89 1030.2
20260508034952 46 0.0 0.0 0.00 0.00 0.00 88 1030.1
20260508033952 46 0.0 0.0 0.00 0.00 0.00 89 1030.1
20260508032952 45 0.0 0.0 0.00 0.00 0.00 89 1029.9
20260508031952 45 0.0 0.0 0.00 0.00 0.00 89 1029.8
20260508030952 45 0.0 0.0 0.00 0.00 0.00 90 1029.7
20260508025952 44 0.0 0.0 0.00 0.00 0.00 89 1029.5
20260508024952 44 0.0 0.0 0.00 0.00 0.00 89 1029.5
20260508023952 44 0.0 0.0 0.00 0.00 0.00 89 1029.4
20260508022952 44 0.0 0.0 0.00 0.00 0.00 88 1029.4
20260508021952 45 0.0 0.0 0.00 0.00 0.00 88 1029.5
20260508020952 45 0.0 0.0 0.00 0.00 0.00 88 1029.4
20260508015952 44 0.0 0.0 0.00 0.00 0.00 88 1029.4
20260508014952 45 0.0 0.0 0.00 0.00 0.00 88 1029.5
20260508013952 45 0.0 0.0 0.00 0.00 0.00 87 1029.4
20260508012952 44 0.0 0.0 0.00 0.00 0.00 88 1029.5
20260508011952 45 0.0 0.0 0.00 0.00 0.00 87 1029.5
20260508010952 45 0.0 0.0 0.00 0.00 0.00 86 1029.6
20260508005952 45 0.0 0.0 0.00 0.00 0.00 86 1029.6
20260508004952 46 0.0 0.0 0.00 0.00 0.00 86 1029.7
20260508003952 46 0.0 0.0 0.00 0.00 0.00 87 1029.7
20260508002952 46 0.0 0.0 0.00 0.00 0.00 87 1029.6
20260508001952 46 0.0 0.0 0.00 0.00 0.00 87 1029.7
20260508000952 45 0.0 0.0 0.00 0.00 0.00 88 1029.7
20260507235952 46 0.0 0.0 0.00 0.00 0.00 86 1029.7
20260507234952 46 0.0 0.0 0.00 0.00 0.00 87 1029.7
20260507233952 46 0.0 0.0 0.00 0.00 0.00 87 1029.7
20260507232952 46 0.0 0.0 0.00 0.00 0.00 87 1029.7
20260507231952 46 0.0 0.0 0.00 0.00 0.00 86 1029.7
20260507230952 46 0.0 0.0 0.00 0.00 0.00 86 1029.6
20260507225952 47 0.0 0.0 0.00 0.00 0.00 85 1029.6
20260507224952 47 0.0 0.0 0.00 0.00 0.00 85 1029.5
20260507223952 47 0.0 0.0 0.00 0.00 0.00 85 1029.5
20260507222952 47 0.0 0.0 0.00 0.00 0.00 85 1029.5
20260507221952 47 0.0 0.0 0.00 0.00 0.00 84 1029.5
20260507220952 47 0.0 0.0 0.00 0.00 0.00 84 1029.5
20260507215952 47 0.0 0.0 0.00 0.00 0.00 85 1029.5
20260507214952 47 0.0 0.0 0.00 0.00 0.00 84 1029.5
20260507213952 48 0.0 0.0 0.00 0.00 0.00 83 1029.6
20260507212952 48 0.0 0.0 0.00 0.00 0.00 83 1029.6
20260507211952 48 0.0 0.0 0.00 0.00 0.00 83 1029.5
20260507210952 48 0.0 0.0 0.00 0.00 0.00 83 1029.4
20260507205952 48 0.0 0.0 0.00 0.00 0.00 82 1029.3
20260507204952 48 0.0 0.0 0.00 0.00 0.00 82 1029.4
20260507203952 49 0.0 0.0 0.00 0.00 0.00 81 1029.3
20260507202952 50 0.0 0.0 0.00 0.00 0.00 80 1029.3
20260507201952 50 0.0 0.0 0.00 0.00 0.00 80 1029.2
20260507200952 50 0.0 0.0 0.00 0.00 0.00 80 1029.2
20260507195952 50 0.0 0.0 0.00 0.00 0.00 78 1029.2
20260507194952 50 0.0 0.0 0.00 0.00 0.00 78 1029.3
20260507193952 51 0.0 0.0 0.00 0.00 0.00 78 1029.3
20260507192952 51 0.0 0.0 0.00 0.00 0.00 78 1029.2
20260507191951 51 0.0 0.0 0.00 0.00 0.00 77 1029.2
20260507190952 52 0.0 0.0 0.00 0.00 0.00 76 1029.3
20260507185952 52 0.0 0.0 0.00 0.00 0.00 75 1029.2
20260507184952 53 0.0 0.0 0.00 0.00 0.00 74 1029.2
20260507183952 53 0.0 0.0 0.00 0.00 0.00 75 1029.2
20260507182952 53 0.0 0.0 0.00 0.00 0.00 74 1029.2
20260507181951 54 0.0 0.0 0.00 0.00 0.00 73 1029.1
20260507180951 54 0.0 0.0 0.00 0.00 0.00 72 1029.0
20260507175951 55 0.0 0.0 0.00 0.00 0.00 72 1028.9
20260507174952 55 0.0 0.0 0.00 0.00 0.00 71 1028.8
20260507173951 56 0.0 0.0 0.00 0.00 0.00 70 1028.8
20260507172951 57 0.0 0.0 0.00 0.00 0.00 69 1028.7
20260507171951 57 0.0 0.0 0.00 0.00 0.00 69 1028.7
20260507170952 58 0.0 0.0 0.00 0.00 0.00 68 1028.7
20260507165951 58 0.0 0.0 0.00 0.00 0.00 67 1028.7
20260507164951 60 0.0 0.0 0.00 0.00 0.00 65 1028.7
20260507163951 61 0.0 0.0 0.00 0.00 0.00 63 1028.7
20260507162951 63 0.0 0.0 0.00 0.00 0.00 60 1028.6
20260507161951 65 0.0 0.0 0.00 0.00 0.00 56 1028.6
20260507160951 67 0.0 0.0 0.00 0.00 0.00 55 1028.5
20260507155951 69 0.0 0.0 0.00 0.00 0.00 50 1028.6
20260507154951 70 0.0 0.0 0.00 0.00 0.00 43 1028.6
20260507153951 70 0.0 0.0 0.00 0.00 0.00 40 1028.5
20260507152951 71 0.0 0.0 0.00 0.00 0.00 40 1028.5
20260507151951 71 0.0 0.0 0.00 0.00 0.00 39 1028.5
20260507150951 70 0.0 0.0 0.00 0.00 0.00 36 1028.6
20260507145951 72 0.0 0.0 0.00 0.00 0.00 37 1028.7
20260507144951 72 0.0 0.0 0.00 0.00 0.00 37 1028.7
20260507143951 72 0.0 0.0 0.00 0.00 0.00 37 1028.8
20260507142951 72 0.0 0.0 0.00 0.00 0.00 37 1028.8
20260507141951 72 0.0 0.0 0.00 0.00 0.00 35 1028.9
20260507140951 73 0.0 0.0 0.00 0.00 0.00 36 1028.8
20260507135951 73 0.0 0.0 0.00 0.00 0.00 36 1028.8
20260507134951 73 0.0 0.0 0.00 0.00 0.00 36 1028.7
20260507133951 74 0.0 0.0 0.00 0.00 0.00 38 1028.6
20260507132951 73 0.0 0.0 0.00 0.00 0.00 38 1028.6
20260507131951 73 0.0 0.0 0.00 0.00 0.00 37 1028.6
20260507130951 73 0.0 0.0 0.00 0.00 0.00 35 1028.7
20260507125951 74 0.0 0.0 0.00 0.00 0.00 37 1028.7
20260507124951 74 0.0 0.0 0.00 0.00 0.00 37 1028.8
20260507123951 73 0.0 0.0 0.00 0.00 0.00 38 1028.8
20260507122951 75 0.0 0.0 0.00 0.00 0.00 38 1029.0
20260507121951 76 0.0 0.0 0.00 0.00 0.00 36 1029.0
20260507120951 76 0.0 0.0 0.00 0.00 0.00 37 1029.1
20260507115951 78 0.0 0.0 0.00 0.00 0.00 39 1029.3
20260507114951 76 0.0 0.0 0.00 0.00 0.00 39 1029.3
20260507113951 79 0.0 0.0 0.00 0.00 0.00 40 1029.4
20260507112951 78 0.0 0.0 0.00 0.00 0.00 40 1029.5
20260507111951 78 0.0 0.0 0.00 0.00 0.00 42 1029.5
20260507110951 78 0.0 0.0 0.00 0.00 0.00 41 1029.5
20260507105951 79 0.0 0.0 0.00 0.00 0.00 41 1029.4
20260507104951 79 0.0 0.0 0.00 0.00 0.00 42 1029.5
20260507103951 78 0.0 0.0 0.00 0.00 0.00 44 1029.5
20260507102951 77 0.0 0.0 0.00 0.00 0.00 44 1029.4
20260507101951 77 0.0 0.0 0.00 0.00 0.00 43 1029.5
20260507100951 77 0.0 0.0 0.00 0.00 0.00 44 1029.4
20260507095951 77 0.0 0.0 0.00 0.00 0.00 44 1029.4
20260507094951 75 0.0 0.0 0.00 0.00 0.00 46 1029.3
20260507093951 73 0.0 0.0 0.00 0.00 0.00 47 1029.3
20260507092951 74 0.0 0.0 0.00 0.00 0.00 42 1029.4